Location: Warwick
(41.7000°N, 71.4170°W)
Time: 21:47:38
(UTC-05:00)

N. Korean satellite - Visible Passes

Search period start: 11 December 2017 00:00
Search period end: 21 December 2017 00:00
Orbit: 461 x 513 km, 97.2° (Epoch: 11 December)

Date Brightness Start Highest point End Pass type
(mag) Time Alt. Az. Time Alt. Az. Time Alt. Az.
11 Dec 10.1 05:26:26 10° ENE 05:27:49 12° E 05:29:11 10° ESE visible
11 Dec 6.5 17:33:53 10° SSE 17:37:32 67° ENE 17:41:16 10° N visible
12 Dec 7.3 17:10:45 10° SE 17:14:05 33° ENE 17:17:29 10° N visible
12 Dec 9.7 18:45:23 10° SW 18:47:42 16° W 18:50:02 10° NW visible
13 Dec 8.1 06:10:57 10° NNE 06:14:31 42° E 06:17:59 10° S visible
13 Dec 8.1 16:48:06 10° ESE 16:50:42 18° ENE 16:53:20 10° NNE visible
13 Dec 8.6 18:20:43 10° SSW 18:23:59 30° W 18:27:19 10° NNW visible
14 Dec 9.4 05:47:55 10° NE 05:50:51 22° E 05:53:43 10° SE visible
14 Dec 7.2 17:56:43 10° S 18:00:22 60° W 18:04:06 10° NNW visible
15 Dec 10.1 05:25:50 10° ENE 05:27:06 11° E 05:28:19 10° ESE visible
15 Dec 6.6 17:33:08 10° SSE 17:36:50 66° ENE 17:40:34 10° N visible
16 Dec 6.7 06:33:38 10° NNE 06:37:21 87° ESE 06:40:59 10° SSW visible
16 Dec 7.3 17:10:00 10° SE 17:13:22 33° ENE 17:16:45 10° N visible
16 Dec 9.7 18:44:35 10° SW 18:46:57 16° W 18:49:21 10° NW visible
17 Dec 8.1 06:10:14 10° NNE 06:13:46 41° E 06:17:12 10° S visible
17 Dec 8.1 16:47:22 10° ESE 16:49:58 18° ENE 16:52:35 10° NNE visible
17 Dec 8.6 18:19:56 10° SSW 18:23:15 30° W 18:26:36 10° NNW visible
18 Dec 9.4 05:47:13 10° NE 05:50:05 21° E 05:52:54 10° SE visible
18 Dec 7.2 17:55:56 10° S 17:59:37 61° W 18:03:21 10° NNW visible
19 Dec 10.2 05:25:14 10° ENE 05:26:19 11° E 05:27:23 10° ESE visible
19 Dec 6.6 17:32:21 10° SSE 17:36:04 65° ENE 17:39:49 10° N visible
20 Dec 6.7 06:32:53 10° NNE 06:36:34 86° E 06:40:10 10° SSW visible
20 Dec 7.3 17:09:13 10° SE 17:12:35 33° ENE 17:15:59 10° N visible
20 Dec 9.7 18:43:45 10° SW 18:46:11 16° W 18:48:37 10° NW visible
